CDT,Max TemperatureF,Mean TemperatureF,Min TemperatureF,Max Dew PointF,MeanDew PointF,Min DewpointF,Max Humidity, Mean Humidity, Min Humidity, Max Sea Level PressureIn, Mean Sea Level PressureIn, Min Sea Level PressureIn, Max VisibilityMiles, Mean VisibilityMiles, Min VisibilityMiles, Max Wind SpeedMPH, Mean Wind SpeedMPH, Max Gust SpeedMPH,PrecipitationIn, CloudCover, Events, WindDirDegrees
2013-3-1,37,35,33,34,32,32,100,92,81,30.09,30.06,30.01,10,5,1,13,3,16,0.02,8,Rain-Snow,330
2013-3-2,33,32,30,32,28,23,93,84,69,30.18,30.14,30.09,10,9,2,18,11,20,0.00,7,Snow,330
2013-3-3,37,30,24,27,22,19,86,69,48,30.18,30.14,30.09,10,10,10,12,5,,0.00,0,,310
2013-3-4,46,37,28,32,28,25,93,69,53,30.12,29.99,29.84,10,10,10,20,6,24,0.00,6,Rain,106
2013-3-5,42,37,32,41,33,27,100,84,61,29.92,29.82,29.74,10,7,0,30,11,40,0.08,8,Rain-Snow,304
2013-3-6,33,32,32,30,29,28,93,87,81,30.34,30.21,29.93,10,9,3,24,17,37,0.00,8,Snow,319
2013-3-7,37,34,32,32,30,28,93,85,70,30.43,30.39,30.33,10,10,10,7,1,,0.00,8,,347
2013-3-8,51,40,30,34,31,28,100,72,47,30.48,30.39,30.29,10,9,4,13,4,16,0.00,0,,92
2013-3-9,59,47,35,37,34,32,87,59,39,30.27,30.11,29.92,10,10,10,20,8,29,0.00,2,,137
2013-3-10,66,58,51,54,43,36,100,62,40,29.92,29.81,29.71,10,9,4,24,15,36,0.37,4,Rain,174
2013-3-11,55,45,35,54,40,32,100,86,76,29.98,29.79,29.67,10,10,2,23,12,30,0.03,8,Rain,249
2013-3-12,48,40,32,32,30,28,93,72,46,30.14,30.05,29.98,10,10,10,20,9,24,0.00,3,Rain,276
2013-3-13,35,32,28,28,24,19,93,70,56,30.40,30.31,30.14,10,10,7,26,14,38,0.00,4,Snow,307
2013-3-14,41,32,24,32,28,21,100,79,52,30.40,30.31,30.17,10,10,10,13,3,17,0.00,4,,176
2013-3-15,62,46,30,50,39,30,100,74,48,30.16,29.92,29.66,10,9,2,17,4,21,0.00,1,,158
2013-3-16,64,52,39,50,42,34,82,72,59,30.04,29.84,29.64,10,9,4,22,14,31,0.02,4,Rain-Thunderstorm,312
2013-3-17,39,36,33,36,34,32,93,90,81,30.10,30.01,29.83,10,7,2,21,10,26,0.67,8,Rain-Snow-Thunderstorm,54
2013-3-18,46,42,37,45,39,34,100,91,76,29.94,29.75,29.65,10,8,1,21,11,25,0.80,7,Rain-Snow-Thunderstorm,248
2013-3-19,46,39,32,32,26,19,81,64,34,30.19,30.12,29.95,10,10,10,23,13,26,0.13,0,,279
2013-3-20,35,32,28,30,22,14,93,66,48,30.19,30.14,30.09,10,10,10,23,8,30,0.01,3,,305
2013-3-21,35,29,23,23,16,12,80,59,44,30.12,30.07,30.02,10,10,5,13,5,,0.00,1,Snow,327
2013-3-22,41,32,24,30,22,18,86,64,39,30.09,30.05,30.02,10,10,10,10,1,,0.00,5,,129
2013-3-23,55,45,35,32,28,21,81,52,33,30.05,29.96,29.80,10,10,10,16,4,17,0.00,4,,57
2013-3-24,44,38,33,36,33,28,100,89,53,29.85,29.60,29.43,10,6,0,26,12,33,0.44,8,Rain-Snow-Thunderstorm,40
2013-3-25,35,34,32,32,31,30,100,92,81,30.11,29.87,29.62,10,4,1,24,16,31,0.00,8,Snow,302
2013-3-26,42,38,33,34,31,27,93,80,61,30.34,30.23,30.11,10,10,7,17,11,23,0.03,7,Snow,305
2013-3-27,46,39,32,30,29,27,93,70,46,30.39,30.35,30.33,10,10,10,13,6,20,0.00,5,,295
2013-3-28,53,40,28,34,28,23,93,65,35,30.41,30.35,30.29,10,10,7,5,1,,0.00,1,,99
2013-3-29,55,46,37,45,38,32,93,73,54,30.30,30.26,30.21,10,9,0,8,1,,0.00,5,Fog,98
2013-3-30,60,46,33,48,40,34,100,81,36,30.22,30.11,29.92,10,5,0,14,3,16,0.05,6,Fog-Rain,163
2013-3-31,64,55,46,48,46,41,100,76,42,29.92,29.87,29.84,10,7,1,16,4,24,0.00,6,Rain,274